EDT,Max TemperatureF,Mean TemperatureF,Min TemperatureF,Max Dew PointF,MeanDew PointF,Min DewpointF,Max Humidity, Mean Humidity, Min Humidity, Max Sea Level PressureIn, Mean Sea Level PressureIn, Min Sea Level PressureIn, Max VisibilityMiles, Mean VisibilityMiles, Min VisibilityMiles, Max Wind SpeedMPH, Mean Wind SpeedMPH, Max Gust SpeedMPH,PrecipitationIn, CloudCover, Events, WindDirDegrees
2014-3-1,39,26,12,27,15,1,75,59,36,30.41,30.30,30.17,10,10,10,10,3,,0.00,2,,193
2014-3-2,39,34,30,30,26,18,81,69,52,30.16,30.05,29.99,10,9,3,9,5,,0.00,7,,279
2014-3-3,33,22,10,27,7,-2,80,58,42,30.31,30.16,29.98,10,8,1,16,11,23,0.04,5,,331
2014-3-4,28,18,8,14,4,-6,64,52,40,30.41,30.32,30.25,10,10,10,9,5,,0.00,0,,331
2014-3-5,37,27,17,18,12,7,74,50,32,30.40,30.26,30.20,10,10,10,15,3,20,0.00,3,,33
2014-3-6,30,24,19,19,10,3,64,53,43,30.62,30.52,30.41,10,10,10,16,11,23,0.00,1,,50
2014-3-7,35,32,30,28,25,19,87,72,60,30.44,30.17,29.89,10,8,2,17,9,22,0.00,8,,43
2014-3-8,57,44,30,34,30,27,86,59,33,29.91,29.86,29.79,10,10,9,24,9,30,0.00,3,,300
2014-3-9,44,40,37,30,21,14,75,47,31,30.02,29.97,29.88,10,10,8,21,10,26,0.00,4,,303
2014-3-10,53,44,35,30,23,16,57,44,37,29.96,29.79,29.63,10,10,10,16,7,23,0.00,5,,241
2014-3-11,64,53,42,37,32,28,57,45,28,29.71,29.64,29.58,10,10,4,14,7,20,0.00,0,,260
2014-3-12,60,50,37,52,42,28,88,69,52,29.68,29.34,29.03,10,9,4,25,7,40,0.15,4,,176
2014-3-13,33,26,19,25,3,-2,70,40,27,30.09,29.65,29.19,10,10,10,33,24,46,0.00,3,,302
2014-3-14,46,32,19,27,10,-4,56,39,25,30.23,30.11,29.92,10,10,10,17,10,24,0.00,2,,220
2014-3-15,60,51,42,32,26,21,53,38,25,30.00,29.85,29.78,10,10,10,23,13,33,0.00,2,,260
2014-3-16,46,39,32,21,11,5,48,34,26,30.19,30.13,30.01,10,10,10,16,11,24,0.00,2,,330
2014-3-17,32,28,23,18,11,7,80,50,38,30.12,30.06,30.03,10,8,1,17,11,25,0.00,8,,43
2014-3-18,37,34,30,25,17,9,70,52,36,30.27,30.21,30.11,10,10,10,20,9,25,0.00,4,,68
2014-3-19,48,40,33,45,32,25,87,74,65,30.28,30.13,29.82,10,9,1,18,11,30,0.41,7,,90
2014-3-20,55,48,39,45,32,21,87,58,33,29.93,29.81,29.75,10,9,1,25,12,36,0.01,5,,282
2014-3-21,51,42,33,23,20,18,56,41,28,30.06,29.99,29.93,10,10,10,22,12,28,0.00,0,,277
2014-3-22,64,48,33,36,29,18,71,44,26,30.04,29.89,29.77,10,10,10,21,10,31,0.00,1,,240
2014-3-23,44,37,28,25,18,5,56,42,31,30.11,30.02,29.97,10,10,10,20,8,25,0.00,3,,330
2014-3-24,33,26,19,5,3,0,46,35,28,30.25,30.18,30.11,10,10,10,24,12,31,0.00,0,,309
2014-3-25,37,28,19,25,13,3,86,52,36,30.16,30.03,29.84,10,8,2,14,4,20,0.00,4,,109
2014-3-26,35,30,26,25,12,1,86,48,28,30.24,29.91,29.73,10,9,2,31,16,44,0.00,2,,318
2014-3-27,42,32,21,19,10,1,56,41,24,30.43,30.34,30.24,10,10,10,17,11,28,0.00,0,,252
2014-3-28,64,48,33,48,39,19,71,60,52,30.28,30.09,29.98,10,10,10,26,10,43,0.00,5,,210
2014-3-29,59,50,42,48,41,37,88,78,62,30.17,30.02,29.62,10,7,2,17,8,26,1.63,6,,50
2014-3-30,55,47,39,52,42,36,94,85,76,29.64,29.52,29.44,10,4,0,21,10,32,0.28,8,,4
2014-3-31,53,44,35,36,32,27,87,65,44,30.08,29.87,29.65,10,9,3,23,15,31,0.07,5,,337